| time (UTC) | temp F | wind direction | speed knots | gust knots | rain 1hr in | rain 24hr in | rain mn in | humidity % | barometer mb |
| 20260506222703 | 47 | 101 | 4.3 | 6.1 | 0.00 | 0.00 | 0.00 | 77 | 1015.4 |
| 20260506221803 | 47 | 99 | 4.3 | 6.1 | 0.00 | 0.00 | 0.00 | 76 | 1015.5 |
| 20260506220903 | 47 | 94 | 4.3 | 7.0 | 0.00 | 0.00 | 0.00 | 76 | 1015.6 |
| 20260506220218 | 48 | 92 | 5.2 | 7.0 | 0.00 | 0.00 | 0.00 | 75 | 1015.5 |
| 20260506215403 | 48 | 98 | 4.3 | 7.0 | 0.00 | 0.00 | 0.00 | 74 | 1015.3 |
| 20260506214503 | 48 | 97 | 5.2 | 7.8 | 0.00 | 0.00 | 0.00 | 74 | 1015.3 |
| 20260506213603 | 48 | 92 | 6.1 | 8.7 | 0.00 | 0.00 | 0.00 | 72 | 1015.2 |
| 20260506212918 | 48 | 91 | 6.1 | 8.7 | 0.00 | 0.00 | 0.00 | 72 | 1015.2 |
| 20260506211803 | 48 | 95 | 6.1 | 7.8 | 0.00 | 0.00 | 0.00 | 70 | 1015.1 |
| 20260506210903 | 48 | 92 | 5.2 | 7.0 | 0.00 | 0.00 | 0.00 | 68 | 1015.1 |
| 20260506210004 | 49 | 93 | 4.3 | 5.2 | 0.00 | 0.00 | 0.00 | 68 | 1015.1 |
| 20260506205617 | 49 | 97 | 4.3 | 5.2 | 0.00 | 0.00 | 0.00 | 68 | 1015.0 |
| 20260506204503 | 49 | 80 | 4.3 | 6.1 | 0.00 | 0.00 | 0.00 | 67 | 1015.0 |
| 20260506203603 | 49 | 81 | 3.5 | 6.1 | 0.00 | 0.00 | 0.00 | 66 | 1014.9 |
| 20260506202703 | 49 | 80 | 3.5 | 4.3 | 0.00 | 0.00 | 0.00 | 64 | 1014.8 |
| 20260506201803 | 50 | 79 | 2.6 | 4.3 | 0.00 | 0.00 | 0.00 | 63 | 1014.6 |
| 20260506200903 | 50 | 86 | 2.6 | 5.2 | 0.00 | 0.00 | 0.00 | 62 | 1014.6 |
| 20260506200003 | 50 | 85 | 2.6 | 4.3 | 0.00 | 0.00 | 0.00 | 61 | 1014.5 |
| 20260506195617 | 50 | 83 | 2.6 | 4.3 | 0.00 | 0.00 | 0.00 | 61 | 1014.5 |
| 20260506194503 | 50 | 82 | 2.6 | 4.3 | 0.00 | 0.00 | 0.00 | 60 | 1014.3 |
| 20260506193603 | 51 | 90 | 1.7 | 2.6 | 0.00 | 0.00 | 0.00 | 60 | 1014.4 |
| 20260506192917 | 51 | 94 | 2.6 | 5.2 | 0.00 | 0.00 | 0.00 | 59 | 1014.3 |
| 20260506191803 | 52 | 93 | 1.7 | 3.5 | 0.00 | 0.00 | 0.00 | 58 | 1014.5 |
| 20260506191118 | 52 | 91 | 2.6 | 3.5 | 0.00 | 0.00 | 0.00 | 58 | 1014.4 |
| 20260506190217 | 52 | 98 | 2.6 | 3.5 | 0.00 | 0.00 | 0.00 | 58 | 1014.3 |
| 20260506185403 | 52 | 102 | 2.6 | 3.5 | 0.00 | 0.00 | 0.00 | 58 | 1014.3 |
| 20260506184503 | 53 | 93 | 2.6 | 5.2 | 0.00 | 0.00 | 0.00 | 56 | 1014.3 |
| 20260506183603 | 53 | 90 | 3.5 | 6.1 | 0.00 | 0.00 | 0.00 | 55 | 1014.2 |
| 20260506182703 | 53 | 63 | 2.6 | 3.5 | 0.00 | 0.00 | 0.00 | 54 | 1014.2 |
| 20260506181803 | 54 | 79 | 1.7 | 3.5 | 0.00 | 0.00 | 0.00 | 54 | 1014.3 |
| 20260506180903 | 54 | 76 | 2.6 | 4.3 | 0.00 | 0.00 | 0.00 | 55 | 1014.2 |
| 20260506180004 | 54 | 85 | 4.3 | 7.0 | 0.00 | 0.00 | 0.00 | 55 | 1014.1 |
| 20260506175403 | 54 | 89 | 4.3 | 7.0 | 0.00 | 0.00 | 0.00 | 54 | 1014.0 |
| 20260506174503 | 54 | 82 | 4.3 | 6.1 | 0.00 | 0.00 | 0.00 | 54 | 1014.1 |
| 20260506173603 | 54 | 89 | 3.5 | 5.2 | 0.00 | 0.00 | 0.00 | 55 | 1014.0 |
| 20260506172703 | 54 | 93 | 4.3 | 8.7 | 0.00 | 0.00 | 0.00 | 54 | 1014.0 |
| 20260506171803 | 54 | 92 | 4.3 | 8.7 | 0.00 | 0.00 | 0.00 | 53 | 1014.0 |
| 20260506170903 | 55 | 81 | 3.5 | 6.1 | 0.00 | 0.00 | 0.00 | 54 | 1014.0 |
| 20260506170004 | 54 | 76 | 3.5 | 6.1 | 0.00 | 0.00 | 0.00 | 53 | 1014.0 |
| 20260506165618 | 54 | 81 | 3.5 | 6.1 | 0.00 | 0.00 | 0.00 | 53 | 1014.0 |
| 20260506164503 | 55 | 36 | 3.5 | 6.1 | 0.00 | 0.00 | 0.00 | 52 | 1014.0 |
| 20260506163603 | 55 | 62 | 3.5 | 5.2 | 0.00 | 0.00 | 0.00 | 52 | 1013.9 |
| 20260506162703 | 55 | 36 | 3.5 | 7.0 | 0.00 | 0.00 | 0.00 | 52 | 1013.9 |
| 20260506161803 | 55 | 57 | 4.3 | 7.0 | 0.00 | 0.00 | 0.00 | 52 | 1013.9 |
| 20260506160903 | 56 | 75 | 3.5 | 7.8 | 0.00 | 0.00 | 0.00 | 53 | 1013.9 |
| 20260506160003 | 56 | 15 | 3.5 | 7.8 | 0.00 | 0.00 | 0.00 | 51 | 1014.0 |
| 20260506155403 | 56 | 345 | 2.6 | 5.2 | 0.00 | 0.00 | 0.00 | 49 | 1013.9 |
| 20260506154717 | 56 | 16 | 2.6 | 5.2 | 0.00 | 0.00 | 0.00 | 48 | 1013.8 |
| 20260506153818 | 55 | 86 | 3.5 | 6.1 | 0.00 | 0.00 | 0.00 | 52 | 1013.9 |
| 20260506152703 | 56 | 91 | 3.5 | 6.1 | 0.00 | 0.00 | 0.00 | 52 | 1013.9 |
| 20260506151803 | 56 | 57 | 3.5 | 7.0 | 0.00 | 0.00 | 0.00 | 53 | 1014.0 |
| 20260506151116 | 55 | 90 | 4.3 | 7.8 | 0.00 | 0.00 | 0.00 | 54 | 1014.1 |
| 20260506150003 | 55 | 97 | 5.2 | 7.8 | 0.00 | 0.00 | 0.00 | 54 | 1014.0 |
| 20260506145403 | 55 | 90 | 4.3 | 7.8 | 0.00 | 0.00 | 0.00 | 52 | 1014.2 |
| 20260506144503 | 55 | 359 | 4.3 | 7.8 | 0.00 | 0.00 | 0.00 | 53 | 1014.2 |
| 20260506143603 | 56 | 34 | 5.2 | 8.7 | 0.00 | 0.00 | 0.00 | 54 | 1014.2 |
| 20260506142703 | 55 | 33 | 4.3 | 7.0 | 0.00 | 0.00 | 0.00 | 54 | 1014.2 |
| 20260506142016 | 54 | 59 | 4.3 | 6.1 | 0.00 | 0.00 | 0.00 | 55 | 1014.4 |
| 20260506140903 | 55 | 64 | 4.3 | 8.7 | 0.00 | 0.00 | 0.00 | 55 | 1014.5 |
| 20260506140003 | 54 | 60 | 4.3 | 7.8 | 0.00 | 0.00 | 0.00 | 54 | 1014.5 |
| 20260506135617 | 55 | 28 | 4.3 | 7.8 | 0.00 | 0.00 | 0.00 | 53 | 1014.4 |
| 20260506134718 | 55 | 6 | 5.2 | 8.7 | 0.00 | 0.00 | 0.00 | 54 | 1014.5 |
| 20260506133603 | 54 | 68 | 2.6 | 7.0 | 0.00 | 0.00 | 0.00 | 57 | 1014.6 |
| 20260506132917 | 54 | 71 | 4.3 | 8.7 | 0.00 | 0.00 | 0.00 | 56 | 1014.7 |
| 20260506132018 | 54 | 95 | 7.0 | 10.4 | 0.00 | 0.00 | 0.00 | 59 | 1014.7 |
| 20260506130903 | 55 | 55 | 5.2 | 8.7 | 0.00 | 0.00 | 0.00 | 57 | 1014.7 |
| 20260506130003 | 54 | 105 | 7.0 | 11.3 | 0.00 | 0.00 | 0.00 | 57 | 1014.7 |
| 20260506125403 | 54 | 77 | 4.3 | 8.7 | 0.00 | 0.00 | 0.00 | 57 | 1014.7 |
| 20260506124503 | 54 | 56 | 4.3 | 9.6 | 0.00 | 0.00 | 0.00 | 55 | 1014.7 |
| 20260506123603 | 54 | 44 | 4.3 | 8.7 | 0.00 | 0.00 | 0.00 | 56 | 1014.7 |
| 20260506122703 | 53 | 49 | 5.2 | 8.7 | 0.00 | 0.00 | 0.00 | 55 | 1014.7 |
| 20260506121803 | 54 | 50 | 5.2 | 9.6 | 0.00 | 0.00 | 0.00 | 56 | 1014.7 |
| 20260506121117 | 53 | 84 | 6.1 | 9.6 | 0.00 | 0.00 | 0.00 | 54 | 1014.9 |
| 20260506120219 | 53 | 42 | 5.2 | 9.6 | 0.00 | 0.00 | 0.00 | 56 | 1014.9 |
| 20260506115403 | 54 | 19 | 5.2 | 8.7 | 0.00 | 0.00 | 0.00 | 55 | 1014.8 |
| 20260506114503 | 53 | 44 | 6.1 | 9.6 | 0.00 | 0.00 | 0.00 | 53 | 1014.9 |
| 20260506113603 | 53 | 77 | 6.1 | 10.4 | 0.00 | 0.00 | 0.00 | 54 | 1014.9 |
| 20260506112918 | 53 | 81 | 6.1 | 12.2 | 0.00 | 0.00 | 0.00 | 55 | 1015.0 |
| 20260506111803 | 52 | 3 | 5.2 | 8.7 | 0.00 | 0.00 | 0.00 | 57 | 1015.0 |
| 20260506110903 | 52 | 43 | 4.3 | 8.7 | 0.00 | 0.00 | 0.00 | 60 | 1014.9 |
| 20260506110003 | 52 | 34 | 6.1 | 9.6 | 0.00 | 0.00 | 0.00 | 59 | 1015.0 |
| 20260506105403 | 52 | 7 | 6.1 | 9.6 | 0.00 | 0.00 | 0.00 | 58 | 1015.1 |
| 20260506104503 | 52 | 8 | 4.3 | 8.7 | 0.00 | 0.00 | 0.00 | 63 | 1015.1 |
| 20260506103818 | 51 | 25 | 4.3 | 7.0 | 0.00 | 0.00 | 0.00 | 60 | 1015.1 |
| 20260506102703 | 50 | 29 | 5.2 | 8.7 | 0.00 | 0.00 | 0.00 | 64 | 1015.1 |
| 20260506102017 | 50 | 17 | 5.2 | 8.7 | 0.00 | 0.00 | 0.00 | 63 | 1015.1 |
| 20260506100903 | 50 | 11 | 4.3 | 7.0 | 0.00 | 0.00 | 0.00 | 64 | 1015.2 |
| 20260506100003 | 50 | 77 | 4.3 | 5.2 | 0.00 | 0.00 | 0.00 | 65 | 1015.1 |
| 20260506095617 | 50 | 74 | 4.3 | 5.2 | 0.00 | 0.00 | 0.00 | 65 | 1015.2 |
| 20260506094504 | 49 | 48 | 3.5 | 7.0 | 0.00 | 0.00 | 0.00 | 66 | 1015.1 |
| 20260506093603 | 49 | 358 | 5.2 | 8.7 | 0.00 | 0.00 | 0.00 | 67 | 1015.1 |
| 20260506092703 | 48 | 345 | 5.2 | 8.7 | 0.00 | 0.00 | 0.00 | 68 | 1015.0 |
| 20260506091803 | 49 | 60 | 3.5 | 8.7 | 0.00 | 0.00 | 0.00 | 68 | 1015.1 |
| 20260506091118 | 48 | 97 | 5.2 | 8.7 | 0.00 | 0.00 | 0.00 | 68 | 1015.1 |
| 20260506090003 | 47 | 84 | 6.1 | 9.6 | 0.00 | 0.00 | 0.00 | 68 | 1015.1 |
| 20260506085403 | 47 | 58 | 4.3 | 7.0 | 0.00 | 0.00 | 0.00 | 68 | 1015.1 |
| 20260506084503 | 47 | 36 | 4.3 | 7.8 | 0.00 | 0.00 | 0.00 | 72 | 1015.1 |
| 20260506083817 | 46 | 22 | 6.1 | 9.6 | 0.00 | 0.00 | 0.00 | 73 | 1015.1 |
| 20260506082917 | 46 | 27 | 6.1 | 10.4 | 0.00 | 0.00 | 0.00 | 72 | 1015.1 |
| 20260506081803 | 46 | 44 | 4.3 | 8.7 | 0.00 | 0.00 | 0.00 | 75 | 1015.1 |
| 20260506080903 | 46 | 38 | 5.2 | 8.7 | 0.00 | 0.00 | 0.00 | 74 | 1015.0 |
| 20260506072703 | 45 | 24 | 5.2 | 8.7 | 0.00 | 0.00 | 0.00 | 77 | 1015.0 |
| 20260506071803 | 45 | 24 | 6.1 | 9.6 | 0.00 | 0.00 | 0.00 | 78 | 1015.0 |
| 20260506070904 | 45 | 44 | 5.2 | 9.6 | 0.00 | 0.00 | 0.00 | 78 | 1015.0 |
| 20260506061803 | 44 | 60 | 4.3 | 7.8 | 0.00 | 0.00 | 0.00 | 79 | 1014.6 |
| 20260506060903 | 44 | 62 | 4.3 | 7.8 | 0.00 | 0.00 | 0.00 | 79 | 1014.7 |
| 20260506050903 | 44 | 61 | 4.3 | 7.8 | 0.00 | 0.00 | 0.00 | 82 | 1014.2 |
| 20260506044503 | 44 | 36 | 4.3 | 7.0 | 0.00 | 0.00 | 0.00 | 82 | 1014.1 |
| 20260506043603 | 44 | 36 | 4.3 | 7.8 | 0.00 | 0.00 | 0.00 | 82 | 1014.1 |
| 20260506042703 | 44 | 45 | 4.3 | 7.0 | 0.00 | 0.00 | 0.00 | 82 | 1014.0 |
| 20260506041803 | 45 | 30 | 5.2 | 7.8 | 0.00 | 0.00 | 0.00 | 81 | 1014.1 |
| 20260506040903 | 45 | 42 | 4.3 | 6.1 | 0.00 | 0.00 | 0.00 | 81 | 1014.1 |
| 20260506040217 | 45 | 60 | 5.2 | 9.6 | 0.00 | 0.00 | 0.00 | 81 | 1014.1 |
| 20260506035403 | 45 | 57 | 4.3 | 7.8 | 0.00 | 0.00 | 0.00 | 81 | 1014.2 |
| 20260506034503 | 45 | 58 | 4.3 | 7.0 | 0.00 | 0.00 | 0.00 | 83 | 1014.1 |
| 20260506033603 | 45 | 44 | 4.3 | 8.7 | 0.00 | 0.00 | 0.00 | 83 | 1014.1 |
| 20260506032704 | 45 | 45 | 1.7 | 1.7 | 0.00 | 0.00 | 0.00 | 83 | 1014.2 |
| 20260506031803 | 46 | 57 | 3.5 | 7.8 | 0.00 | 0.00 | 0.00 | 83 | 1014.1 |
| 20260506030903 | 46 | 58 | 4.3 | 7.8 | 0.00 | 0.00 | 0.00 | 83 | 1014.2 |
| 20260506030003 | 46 | 47 | 4.3 | 7.0 | 0.00 | 0.00 | 0.00 | 82 | 1014.2 |
| 20260506025403 | 46 | 35 | 4.3 | 7.0 | 0.00 | 0.00 | 0.00 | 82 | 1014.2 |
| 20260506024503 | 46 | 66 | 1.7 | 2.6 | 0.00 | 0.00 | 0.00 | 82 | 1014.1 |
| 20260506023603 | 46 | 66 | 4.3 | 7.0 | 0.00 | 0.00 | 0.00 | 82 | 1014.2 |
| 20260506022703 | 46 | 77 | 4.3 | 7.0 | 0.00 | 0.00 | 0.00 | 81 | 1014.2 |
| 20260506021803 | 46 | 81 | 4.3 | 6.1 | 0.00 | 0.00 | 0.00 | 80 | 1014.2 |
| 20260506021117 | 46 | 78 | 5.2 | 10.4 | 0.00 | 0.00 | 0.00 | 80 | 1014.2 |
| 20260506020003 | 46 | 83 | 7.0 | 10.4 | 0.00 | 0.00 | 0.00 | 79 | 1014.2 |
| 20260506015403 | 46 | 73 | 7.0 | 11.3 | 0.00 | 0.00 | 0.00 | 79 | 1014.1 |
| 20260506014503 | 47 | 54 | 6.1 | 10.4 | 0.00 | 0.00 | 0.00 | 78 | 1014.1 |
| 20260506013603 | 47 | 82 | 6.1 | 9.6 | 0.00 | 0.00 | 0.00 | 79 | 1014.2 |
| 20260506012703 | 47 | 41 | 6.1 | 12.2 | 0.00 | 0.00 | 0.00 | 80 | 1014.2 |
| 20260506011803 | 47 | 70 | 2.6 | 7.8 | 0.00 | 0.00 | 0.00 | 81 | 1014.3 |
| 20260506010903 | 48 | 70 | 2.6 | 7.8 | 0.00 | 0.00 | 0.00 | 81 | 1014.3 |
| 20260506010003 | 48 | 80 | 3.5 | 6.1 | 0.00 | 0.00 | 0.00 | 82 | 1014.4 |
| 20260506005403 | 48 | 78 | 5.2 | 8.7 | 0.00 | 0.00 | 0.00 | 82 | 1014.3 |
| 20260506004717 | 48 | 63 | 2.6 | 6.1 | 0.00 | 0.00 | 0.00 | 82 | 1014.3 |
| 20260506003604 | 48 | 71 | 3.5 | 7.0 | 0.00 | 0.00 | 0.00 | 82 | 1014.4 |
| 20260506002703 | 48 | 69 | 5.2 | 13.0 | 0.00 | 0.00 | 0.00 | 82 | 1014.4 |
| 20260506001803 | 48 | 66 | 5.2 | 13.0 | 0.00 | 0.00 | 0.00 | 82 | 1014.4 |
| 20260506001117 | 48 | 48 | 5.2 | 10.4 | 0.00 | 0.00 | 0.00 | 82 | 1014.5 |
| 20260506000004 | 48 | 51 | 4.3 | 7.8 | 0.00 | 0.00 | 0.00 | 82 | 1014.4 |
| 20260505235403 | 48 | 32 | 3.5 | 6.1 | 0.00 | 0.00 | 0.00 | 83 | 1014.3 |
| 20260505234503 | 48 | 34 | 3.5 | 5.2 | 0.00 | 0.00 | 0.00 | 83 | 1014.3 |
| 20260505233603 | 48 | 29 | 3.5 | 7.0 | 0.00 | 0.00 | 0.00 | 83 | 1014.3 |
| 20260505232918 | 48 | 29 | 4.3 | 7.0 | 0.00 | 0.00 | 0.00 | 82 | 1014.4 |
| 20260505231803 | 48 | 33 | 4.3 | 8.7 | 0.00 | 0.00 | 0.00 | 82 | 1014.5 |
| 20260505230903 | 48 | 26 | 4.3 | 7.0 | 0.00 | 0.00 | 0.00 | 82 | 1014.5 |
| 20260505230217 | 49 | 16 | 5.2 | 9.6 | 0.00 | 0.00 | 0.00 | 82 | 1014.5 |
| 20260505225403 | 48 | 14 | 5.2 | 7.0 | 0.00 | 0.00 | 0.00 | 81 | 1014.3 |
| 20260505224504 | 49 | 6 | 5.2 | 7.8 | 0.00 | 0.00 | 0.00 | 81 | 1014.5 |
| 20260505223818 | 48 | 360 | 5.2 | 7.8 | 0.00 | 0.00 | 0.00 | 81 | 1014.5 |